When you browse on this site, cookies collect data to enhance your experience and personalize the content and advertising you see.
Visit our Privacy Policy to learn more. By continuing to use the site, you agree to this use of cookies and data.
  • In Österreich
  • Länderverzeichnis
  • Für 7 Tage
  • Wassertemperatur
  • Wetterkarte
  • News
  • Widgets
  • user-avatar
    Anmelden

    Stündliche Wetter Rondônia

    Heute, 8 Dezember, Sonntag

    Zeit Temperatur Niederschläge Wind Luftdruck Luftfeuchtigkeit
    00:00 +25°C° 0 mm 1 m/S 737 mmHg 94%
    01:00 +25°C° 0 mm 1 m/S 736 mmHg 95%
    02:00 +25°C° 0 mm 1 m/S 736 mmHg 94%
    03:00 +24°C° 0.4 mm 1 m/S 736 mmHg 94%
    04:00 +24°C° 0.4 mm 1 m/S 736 mmHg 95%
    05:00 +22°C° 0.4 mm 0 m/S 736 mmHg 96%
    06:00 +22°C° 0.5 mm 0 m/S 737 mmHg 95%
    07:00 +23°C° 0.5 mm 0 m/S 737 mmHg 94%
    08:00 +24°C° 0 mm 0 m/S 737 mmHg 95%
    09:00 +28°C° 0 mm 1 m/S 737 mmHg 80%
    10:00 +31°C° 0 mm 1 m/S 737 mmHg 65%
    11:00 +34°C° 0 mm 1 m/S 737 mmHg 50%
    12:00 +35°C° 0 mm 1 m/S 737 mmHg 48%
    13:00 +36°C° 0 mm 1 m/S 736 mmHg 45%
    14:00 +37°C° 0 mm 1 m/S 735 mmHg 42%
    15:00 +35°C° 0.2 mm 1 m/S 735 mmHg 51%
    16:00 +34°C° 0.2 mm 2 m/S 734 mmHg 59%
    17:00 +31°C° 0.2 mm 2 m/S 733 mmHg 68%
    18:00 +29°C° 1.6 mm 1 m/S 734 mmHg 77%
    19:00 +28°C° 1.6 mm 1 m/S 734 mmHg 85%
    20:00 +24°C° 1.6 mm 0 m/S 735 mmHg 94%
    21:00 +24°C° 0.9 mm 0 m/S 735 mmHg 94%
    22:00 +24°C° 0.9 mm 0 m/S 735 mmHg 95%
    23:00 +23°C° 0.9 mm 0 m/S 736 mmHg 95%

    Morgen, 9 Dezember, Montag

    Zeit Temperatur Niederschläge Wind Luftdruck Luftfeuchtigkeit
    00:00 +23°C° 0.1 mm 0 m/S 735 mmHg 95%
    01:00 +23°C° 0.1 mm 0 m/S 735 mmHg 95%
    02:00 +23°C° 0.1 mm 0 m/S 735 mmHg 94%
    03:00 +23°C° 0 mm 0 m/S 735 mmHg 95%
    04:00 +23°C° 0 mm 0 m/S 735 mmHg 95%
    05:00 +23°C° 0 mm 0 m/S 735 mmHg 95%
    06:00 +24°C° 0.1 mm 0 m/S 735 mmHg 92%
    07:00 +25°C° 0.1 mm 0 m/S 736 mmHg 89%
    08:00 +26°C° 0.1 mm 0 m/S 736 mmHg 86%
    09:00 +29°C° 1.8 mm 1 m/S 737 mmHg 87%
    10:00 +29°C° 1.8 mm 1 m/S 737 mmHg 87%
    11:00 +30°C° 1.8 mm 2 m/S 737 mmHg 87%
    12:00 +29°C° 1 mm 1 m/S 736 mmHg 89%
    13:00 +28°C° 1 mm 1 m/S 735 mmHg 90%
    14:00 +26°C° 1 mm 0 m/S 734 mmHg 91%
    15:00 +26°C° 0.1 mm 0 m/S 734 mmHg 90%
    16:00 +26°C° 0.1 mm 0 m/S 734 mmHg 89%
    17:00 +26°C° 0.1 mm 0 m/S 734 mmHg 87%
    18:00 +25°C° 0.8 mm 0 m/S 734 mmHg 90%
    19:00 +24°C° 0.8 mm 0 m/S 735 mmHg 93%
    20:00 +23°C° 0.8 mm 0 m/S 735 mmHg 96%
    21:00 +23°C° 0.8 mm 0 m/S 735 mmHg 96%
    22:00 +23°C° 0.8 mm 0 m/S 736 mmHg 97%
    23:00 +23°C° 0.8 mm 0 m/S 736 mmHg 97%

    übermorgen, 10 Dezember, Dienstag

    Zeit Temperatur Niederschläge Wind Luftdruck Luftfeuchtigkeit
    00:00 +22°C° 0.3 mm 0 m/S 736 mmHg 98%
    01:00 +22°C° 0.3 mm 0 m/S 735 mmHg 98%
    02:00 +22°C° 0.3 mm 0 m/S 735 mmHg 98%
    03:00 +22°C° 0.8 mm 0 m/S 735 mmHg 98%
    04:00 +24°C° 0.8 mm 1 m/S 735 mmHg 98%
    05:00 +24°C° 0.8 mm 1 m/S 735 mmHg 98%
    06:00 +24°C° 1 mm 1 m/S 736 mmHg 98%
    07:00 +25°C° 1 mm 1 m/S 737 mmHg 98%
    08:00 +25°C° 1 mm 1 m/S 738 mmHg 97%
    09:00 +26°C° 0.3 mm 1 m/S 738 mmHg 93%
    10:00 +27°C° 0.3 mm 1 m/S 738 mmHg 88%
    11:00 +28°C° 0.3 mm 1 m/S 738 mmHg 83%
    12:00 +28°C° 0.6 mm 1 m/S 738 mmHg 83%
    13:00 +28°C° 0.6 mm 1 m/S 737 mmHg 82%
    14:00 +29°C° 0.6 mm 1 m/S 737 mmHg 81%
    15:00 +28°C° 0.7 mm 1 m/S 736 mmHg 85%
    16:00 +27°C° 0.7 mm 1 m/S 736 mmHg 88%
    17:00 +24°C° 0.7 mm 0 m/S 735 mmHg 92%
    18:00 +24°C° 0.1 mm 0 m/S 735 mmHg 93%
    19:00 +25°C° 0.1 mm 1 m/S 736 mmHg 95%
    20:00 +25°C° 0.1 mm 1 m/S 736 mmHg 96%
    21:00 +25°C° 0 mm 1 m/S 736 mmHg 97%
    22:00 +22°C° 0 mm 0 m/S 736 mmHg 97%
    23:00 +22°C° 0 mm 0 m/S 736 mmHg 98%

    11 Dezember, Mittwoch

    Zeit Temperatur Niederschläge Wind Luftdruck Luftfeuchtigkeit
    00:00 +22°C° 0 mm 0 m/S 736 mmHg 98%
    01:00 +22°C° 0 mm 0 m/S 736 mmHg 98%
    02:00 +22°C° 0 mm 0 m/S 735 mmHg 97%
    03:00 +22°C° 0.5 mm 0 m/S 736 mmHg 98%
    04:00 +22°C° 0.5 mm 0 m/S 736 mmHg 98%
    05:00 +22°C° 0.5 mm 0 m/S 736 mmHg 99%
    06:00 +24°C° 0.6 mm 1 m/S 736 mmHg 98%
    07:00 +24°C° 0.6 mm 1 m/S 737 mmHg 98%
    08:00 +24°C° 0.6 mm 1 m/S 737 mmHg 98%
    09:00 +26°C° 0 mm 1 m/S 737 mmHg 92%
    10:00 +25°C° 0 mm 0 m/S 737 mmHg 86%
    11:00 +26°C° 0 mm 0 m/S 737 mmHg 80%
    12:00 +28°C° 0.3 mm 0 m/S 736 mmHg 72%
    13:00 +33°C° 0.3 mm 1 m/S 735 mmHg 64%
    14:00 +35°C° 0.3 mm 1 m/S 734 mmHg 56%
    15:00 +33°C° 1.4 mm 1 m/S 734 mmHg 67%
    16:00 +32°C° 1.4 mm 1 m/S 733 mmHg 77%
    17:00 +28°C° 1.4 mm 0 m/S 733 mmHg 88%
    18:00 +27°C° 0.6 mm 0 m/S 733 mmHg 90%
    19:00 +25°C° 0.6 mm 0 m/S 734 mmHg 93%
    20:00 +24°C° 0.6 mm 0 m/S 734 mmHg 95%
    21:00 +24°C° 0.1 mm 0 m/S 735 mmHg 95%
    22:00 +23°C° 0.1 mm 0 m/S 735 mmHg 95%
    23:00 +23°C° 0.1 mm 0 m/S 735 mmHg 95%

    12 Dezember, Donnerstag

    Zeit Temperatur Niederschläge Wind Luftdruck Luftfeuchtigkeit
    00:00 +23°C° 0 mm 0 m/S 735 mmHg 95%
    01:00 +23°C° 0 mm 0 m/S 735 mmHg 96%
    02:00 +23°C° 0 mm 0 m/S 734 mmHg 96%
    03:00 +23°C° 0.2 mm 0 m/S 734 mmHg 97%
    04:00 +23°C° 0.2 mm 0 m/S 734 mmHg 97%
    05:00 +23°C° 0.2 mm 0 m/S 734 mmHg 97%
    06:00 +23°C° 0 mm 0 m/S 735 mmHg 95%
    07:00 +26°C° 0 mm 1 m/S 735 mmHg 93%
    08:00 +26°C° 0 mm 1 m/S 736 mmHg 90%
    09:00 +27°C° 0.8 mm 1 m/S 736 mmHg 90%
    10:00 +27°C° 0.8 mm 1 m/S 736 mmHg 90%
    11:00 +28°C° 0.8 mm 1 m/S 736 mmHg 90%
    12:00 +29°C° 0.3 mm 1 m/S 736 mmHg 81%
    13:00 +31°C° 0.3 mm 2 m/S 735 mmHg 71%
    14:00 +34°C° 0.3 mm 2 m/S 734 mmHg 62%
    15:00 +32°C° 0.5 mm 2 m/S 734 mmHg 65%
    16:00 +31°C° 0.5 mm 1 m/S 734 mmHg 69%
    17:00 +31°C° 0.5 mm 1 m/S 733 mmHg 72%
    18:00 +29°C° 1.5 mm 1 m/S 734 mmHg 80%
    19:00 +27°C° 1.5 mm 1 m/S 735 mmHg 88%
    20:00 +25°C° 1.5 mm 1 m/S 735 mmHg 96%
    21:00 +25°C° 0.2 mm 1 m/S 735 mmHg 97%
    22:00 +23°C° 0.2 mm 0 m/S 736 mmHg 97%
    23:00 +23°C° 0.2 mm 0 m/S 736 mmHg 98%

    13 Dezember, Freitag

    Zeit Temperatur Niederschläge Wind Luftdruck Luftfeuchtigkeit
    00:00 +23°C° 0 mm 0 m/S 736 mmHg 98%
    01:00 +23°C° 0 mm 0 m/S 736 mmHg 98%
    02:00 +23°C° 0 mm 0 m/S 735 mmHg 99%
    03:00 +22°C° 0.4 mm 0 m/S 735 mmHg 99%
    04:00 +22°C° 0.4 mm 0 m/S 735 mmHg 99%
    05:00 +22°C° 0.4 mm 0 m/S 735 mmHg 99%
    06:00 +22°C° 0.4 mm 0 m/S 736 mmHg 99%
    07:00 +24°C° 0.4 mm 1 m/S 737 mmHg 98%
    08:00 +24°C° 0.4 mm 1 m/S 737 mmHg 98%
    09:00 +24°C° 0.3 mm 1 m/S 737 mmHg 97%
    10:00 +25°C° 0.3 mm 1 m/S 738 mmHg 96%
    11:00 +25°C° 0.3 mm 1 m/S 738 mmHg 95%
    12:00 +26°C° 0.3 mm 1 m/S 737 mmHg 90%
    13:00 +28°C° 0.3 mm 2 m/S 737 mmHg 84%
    14:00 +29°C° 0.3 mm 2 m/S 736 mmHg 79%
    15:00 +28°C° 0.5 mm 2 m/S 736 mmHg 82%
    16:00 +27°C° 0.5 mm 1 m/S 735 mmHg 86%
    17:00 +26°C° 0.5 mm 1 m/S 735 mmHg 90%
    18:00 +26°C° 0.2 mm 1 m/S 735 mmHg 92%
    19:00 +25°C° 0.2 mm 1 m/S 736 mmHg 94%
    20:00 +22°C° 0.2 mm 0 m/S 736 mmHg 97%
    21:00 +22°C° 0 mm 0 m/S 736 mmHg 97%
    22:00 +22°C° 0 mm 0 m/S 736 mmHg 97%
    23:00 +22°C° 0 mm 0 m/S 736 mmHg 97%
    Mehr zeigen